Weather History for Kenora, ON

Change the Weather History Date:

Saturday, January 25, 2014

  Actual Average Record
Temperature  
Mean Temperature -8 °F -  
Max Temperature -3 °F 15 °F 30 °F (2012)
Min Temperature -14 °F -4 °F -25 °F (1997)
Degree Days  
Heating Degree Days 74    
Moisture  
Dew Point -17 °F    
Average Humidity 65    
Maximum Humidity 77    
Minimum Humidity 47    
Precipitation  
Precipitation 0.00 in 0.03 in - ()
Sea Level Pressure  
Sea Level Pressure 29.80 in    
Wind  
Wind Speed 11 mph ()    
Max Wind Speed 20 mph    
Max Gust Speed 29 mph    
Visibility 14.5 miles    
Events Snow    
Averages and records for this station are not official NWS values.
T = Trace of Precipitation, MM = Missing Value Source: Averaged Metar Reports

Daily Weather History Graph

Daily Weather History Graph

Search for Another Location

Airport:

Trip Planner

Search our weather history database for the weather conditions in past years. The results will help you decide how hot, cold, wet, or windy it might be!

Date:

Astronomy

Jan. 25, 2014 Rise Set
Actual Time 7:59 AM CST 5:00 PM CST
Civil Twilight 7:23 AM CST 5:36 PM CST
Nautical Twilight 6:44 AM CST 6:15 PM CST
Astronomical Twilight 6:06 AM CST 6:53 PM CST
Moon 2:29 AM CST (1/25) 12:02 PM CST (1/25)
Length of Visible Light 10h 12m
Length of Day
9h 01m
Waning Crescent, 34% of the Moon is Illuminated
Jan 25
Waning Crescent
Jan 30
New
Feb 6
First Quarter
Feb 14
Full
Feb 22
Last Quarter

Hourly Weather History & Observations

Time (CST) Temp. Windchill Dew Point Humidity Pressure Visibility Wind Dir Wind Speed Gust Speed Precip Events Conditions
12:00 AM -3 °F - -12 °F 52% 29.70 in 15 mi NNW 16.1 mph - - Snow Low Drifting Snow
12:00 AM -2.2 °F -22.9 °F -11.2 °F 66% 29.70 in 15.0 mi NNW 16.1 mph 25.3 mph N/A Snow Low Drifting Snow
2:00 AM -4.0 °F -27.0 °F -13.0 °F 65% 29.75 in 15.0 mi NW 19.6 mph 27.6 mph N/A Snow Low Drifting Snow
3:00 AM -5.8 °F -28.2 °F -13.0 °F 71% 29.78 in 15.0 mi NW 17.3 mph 27.6 mph N/A Snow Low Drifting Snow
4:00 AM -7.6 °F -30.5 °F -14.8 °F 71% 29.81 in 15.0 mi NNW 17.3 mph 28.8 mph N/A Snow Low Drifting Snow
5:00 AM -9.4 °F -30.6 °F -16.6 °F 71% 29.83 in 15.0 mi NW 13.8 mph 25.3 mph N/A Snow Low Drifting Snow
6:00 AM -11 °F - -18 °F 60% 29.86 in 12 mi NW 15.0 mph - -   Partly Cloudy
6:00 AM -11.2 °F -32.9 °F -18.4 °F 70% 29.86 in 12.0 mi NW 13.8 mph 25.3 mph N/A Snow Low Drifting Snow
6:16 AM -11.2 °F -32.1 °F -18.4 °F 70% 29.86 in 10.0 mi NW 12.7 mph 24.2 mph N/A Snow Ice Crystals
7:00 AM -13.0 °F -34.3 °F -18.4 °F 77% 29.88 in 12.0 mi NW 12.7 mph 26.5 mph N/A Snow Ice Crystals
8:00 AM -14.8 °F -36.6 °F -20.2 °F 77% 29.90 in 15.0 mi NW 12.7 mph 19.6 mph N/A Snow Ice Crystals
9:00 AM -14.8 °F -36.6 °F -20.2 °F 77% 29.91 in 15.0 mi NW 12.7 mph 20.7 mph N/A Snow Low Drifting Snow
10:00 AM -13.0 °F -34.3 °F -20.2 °F 70% 29.91 in 15.0 mi NW 12.7 mph 19.6 mph N/A Snow Low Drifting Snow
11:00 AM -11.2 °F -32.9 °F -20.2 °F 64% 29.91 in 15.0 mi NW 13.8 mph - N/A Snow Low Drifting Snow
12:00 PM -9 °F - -19 °F 47% 29.88 in 15 mi NW 10.4 mph - -   Partly Cloudy
12:00 PM -9.4 °F -27.9 °F -18.4 °F 65% 29.88 in 15.0 mi WNW 10.4 mph - N/A Snow Low Drifting Snow
1:00 PM -5.8 °F -22.4 °F -16.6 °F 60% 29.86 in 15.0 mi WNW 9.2 mph - N/A   Scattered Clouds
2:00 PM -5.8 °F -19.9 °F -16.6 °F 60% 29.83 in 15.0 mi WNW 6.9 mph - N/A   Scattered Clouds
3:00 PM -4.0 °F -20.2 °F -16.6 °F 55% 29.82 in 15.0 mi West 9.2 mph - N/A   Mostly Cloudy
4:00 PM -5.8 °F -18.4 °F -16.6 °F 60% 29.80 in 15.0 mi West 5.8 mph - N/A   Mostly Cloudy
5:00 PM -7.6 °F -16.5 °F -18.4 °F 59% 29.77 in 15.0 mi West 3.5 mph - N/A   Mostly Cloudy
6:00 PM -8 °F - -17 °F 50% 29.75 in 15 mi WSW 6.9 mph - -   Scattered Clouds
6:00 PM -7.6 °F -22.1 °F -16.6 °F 65% 29.74 in 15.0 mi WSW 6.9 mph - N/A   Mostly Cloudy
7:00 PM -7.6 °F -22.1 °F -16.6 °F 65% 29.73 in 15.0 mi West 6.9 mph - N/A   Scattered Clouds
8:00 PM -7.6 °F -16.5 °F -16.6 °F 65% 29.70 in 15.0 mi WNW 3.5 mph - N/A   Partly Cloudy
9:00 PM -7.6 °F - -16.6 °F 65% 29.68 in 15.0 mi Calm Calm - N/A   Partly Cloudy
10:00 PM -7.6 °F - -16.6 °F 65% 29.66 in 15.0 mi Variable 2.3 mph - N/A   Scattered Clouds
11:00 PM -7.6 °F - -16.6 °F 65% 29.63 in 15.0 mi Variable 2.3 mph - N/A   Scattered Clouds